Location: The Saddle
(36.8333°N, 80.3417°W)
Time: 08:03:43
(UTC-04:00)

A-11 Canister half - Pass Details

Date: 31 May 2024
Orbit: 1515 x 1685 km, 47.2° (Epoch: 17 June)

Event Time Altitude Azimuth Distance (km) Brightness Sun altitude
Rises 03:41:20 0° 280° (W) 4,790 11.3 -22.3°
Reaches altitude 10° 03:44:42 10° 286° (WNW) 3,781 10.8 -21.9°
Maximum altitude 03:53:44 45° 357° (N) 2,019 9.9 -20.8°
Drops below altitude 10° 04:02:31 10° 68° (ENE) 3,684 11.9 -19.7°
Sets 04:05:46 0° 75° (ENE) 4,659 12.4 -19.3°
